Home > Weather > Coral Harbour > Past weeks

Flag for Canada Past Weather in Coral Harbour, Nunavut, Canada — Yesterday and Last 2 Weeks

Now
48 °F

Partly sunny.


Feels Like: 47 °F
Forecast: 43 / 53 °F
Wind: 3 mph from South

Location: Coral Harbour

Current Time: Jul 24, 2016 at 5:38:54 AM

Latest Report: Jul 24, 2016 at 5:00 AM


Visibility: 15 mi

Pressure: 29.86 "Hg

Humidity: 87%

Dew Point: 45 °F

Location of Coral HarbourLocation

Past Weather in Coral Harbour — Graph

°F

Coral Harbour Temperature Yesterday

Maximum temperature yesterday: 55 °F (at 12:00 PM)
Minimum temperature yesterday: 50 °F (at 12:00 AM)
Average temperature yesterday: 53 °F

High & Low Weather Summary for the Past Weeks

 TemperatureHumidityPressure
High77 °F (Jul 9, 4:00 PM)100% (Jul 11, 4:00 AM)30.02 "Hg (Jul 11, 4:00 AM)
Low37 °F (Jul 15, 4:00 AM)29% (Jul 10, 12:00 PM)29.08 "Hg (Jul 16, 2:00 AM)
Average52 °F79%29.65 "Hg
* Reported Jul 9 4:00 AM — Jul 24 4:00 AM, Coral Harbour, Weather by CustomWeather, © 2016

Note: Actual official high and low records may vary slightly from our data, if they occured in-between our weather recording intervals... More about our weather records

Advertising

Coral Harbour Weather History for the Previous 24 Hours

Scroll right to see more
 ConditionsComfort  
Time TempWeatherWind HumidityBarometerVisibility
4:00 AM
Sun, Jul 24
46 °FPassing clouds.2 mph87%29.85 "Hg15 mi
3:00 AM48 °FPassing clouds.No wind82%29.84 "Hg15 mi
2:00 AM48 °FPassing clouds.5 mph76%29.85 "Hg15 mi
1:00 AM48 °FPartly cloudy.5 mph87%29.84 "Hg15 mi
12:00 AM48 °FPassing clouds.3 mph87%29.84 "Hg15 mi
11:00 PM
Sat, Jul 23
50 °FBroken clouds.3 mph82%29.83 "Hg15 mi
10:00 PM50 °FScattered clouds.No wind94%29.82 "Hg15 mi
9:00 PM52 °FPassing clouds.5 mph82%29.82 "Hg15 mi
8:00 PM55 °FPassing clouds.13 mph72%29.80 "Hg15 mi
7:00 PM54 °FPartly sunny.9 mph77%29.82 "Hg15 mi
6:00 PM55 °FPassing clouds.15 mph72%29.81 "Hg15 mi
5:00 PM55 °FPartly sunny.14 mph77%29.80 "Hg15 mi
4:00 PM54 °FScattered showers. Partly sunny.13 mph88%29.81 "Hg15 mi
3:00 PM54 °FScattered showers. Broken clouds.9 mph82%29.81 "Hg15 mi
2:00 PM54 °FScattered showers. Broken clouds.12 mph82%29.80 "Hg15 mi
1:00 PM55 °FBroken clouds.10 mph77%29.79 "Hg15 mi
12:00 PM55 °FPartly sunny.3 mph77%29.79 "Hg15 mi
11:00 AM54 °FSprinkles. Mostly cloudy.No wind82%29.80 "Hg15 mi
10:00 AM54 °FCloudy.8 mph82%29.79 "Hg15 mi
9:00 AM54 °FPartly sunny.7 mph88%29.79 "Hg15 mi
8:00 AM52 °FLight rain. More clouds than sun.2 mph94%29.78 "Hg15 mi
7:00 AM52 °FOvercast.2 mph94%29.77 "Hg15 mi
6:00 AM50 °FLight rain. Overcast.7 mph94%29.77 "Hg12 mi
5:00 AM50 °FLight rain. Overcast.9 mph94%29.77 "Hg12 mi
Weather by CustomWeather, © 2016

See weather overviewHow to use our weather pages